Location: Caltech
(34.1382°N, 118.1253°W)
Time: 07:15:10
(UTC-07:00)

Cosmos 1980 Rocket - Visible Passes

Search period start: 25 June 2016 00:00
Search period end: 05 July 2016 00:00
Orbit: 829 x 850 km, 71.0° (Epoch: 24 June)

Date Brightness Start Highest point End Pass type
(mag) Time Alt. Az. Time Alt. Az. Time Alt. Az.
25 Jun 2.3 20:27:00 10° NNW 20:32:42 86° ENE 20:38:23 10° SSE visible
26 Jun 5.0 21:59:28 10° W 22:00:13 10° W 22:00:58 10° WSW visible
27 Jun 4.9 21:42:56 10° W 21:44:37 11° W 21:46:17 10° WSW visible
28 Jun 4.8 21:26:46 10° WNW 21:29:00 12° W 21:31:14 10° WSW visible
29 Jun 4.8 21:10:44 10° WNW 21:13:24 13° W 21:16:03 10° SW visible
30 Jun 4.8 20:54:47 10° WNW 20:57:47 15° W 21:00:47 10° SW visible
01 Jul 4.8 20:38:51 10° WNW 20:42:10 16° W 20:45:28 10° SW visible
